03:00
Airports
History
Links
Donate
Help keep this website running!
PayPal
Bitcoin
This page is community maintained. The information is intended for PC simulator navigation or reference.
Always use approved charts for navigation.
CFH4
FOX HARBOUR
FOX HARBOUR (CFH4)
Pugwash, Nova Scotia, Canada
(U)
Lat/Lng:45° 52' 12" N / 63° 27' 40" W
45.87 / -63.461112
Elevation:62'ft / 19mMSL
ID / ICAO:CFH4
Runways:1
Longest:15-33
Asphalt 1,481m / 4,858ft
Nearby Weather02:00 GMT 2018-02-18
Nearby weather at CYYG, CHARLOTTETOWN located 33.3 nautical miles from CFH4
Altimeter: 30.36
Visibility: 15.0 statute miles
Wind: 6 knots (from 160°)
Temp: -10°c / 14°f
Humidity: 66.7%

METAR: CYYG 180200Z 16006KT 15SM BKN170 M10/M15 A3036 RMK AC7 SLP288

(Powered by phpweather)
Airport Radio Frequencies
UNICOM/CTAF: 122.2
Nearby VORs <50NM
Nearby NDBs
Runway 15 / 33
Dimensions:1480.6 x 22.9m 4858' x 75'ft
Surface:Asphalt
Runway 15 [A]Runway 33 [B]
Heading:126°TH 306°TH
Lat:
Lng:
45° 52' 26.16"N
63° 28' 7.94"W
45° 51' 57.84"N
63° 27' 12.06"W
User Notes and Comments
45° 52' 12" N / 63° 27' 40" W
Distance To
Airport ID:
Nearby Airports
(U) DEBERT 31.1 NM
CCQ3 S 180°
(C) CHARLOTTETOWN 33.3 NM
CYYG ( WX ) NNE 29°
(U) Summerside 43.3 NM
CYSU NNW 335°
(U) TRENTON 44.3 NM
CYTN ESE 113°
4 STANLEY 57.6 NM
CCW4 SSW 202°
(C) GREATER MONCTON INTL 60.8 NM
CYQM ( WX ) WNW 285°
(U) Moncton McEwen 65.7 NM
CCG4 WNW 287°
VFR Chart
Flight Planning at SkyVector.com